Minot AFB, ND

9:53 AM CDT on October 19, 2017 (GMT -0500)
Minot Air Force Base

Weather History for KMIB - March, 2013

Change the Weather History Date:

Tuesday, March 5, 2013

  Actual Average Record
Temperature  
Mean Temperature 4 °F -  
Max Temperature 15 °F 19 °F 59 °F (2016)
Min Temperature -6 °F 3 °F -14 °F (2003)
Degree Days  
Heating Degree Days 60    
Moisture  
Dew Point 5 °F    
Average Humidity 84    
Maximum Humidity 93    
Minimum Humidity 79    
Precipitation  
Precipitation 0.00 in - - ()
Snow  
Snow 0.00 in - - ()
Snow Depth 16.00 in    
Sea Level Pressure  
Sea Level Pressure 30.46 in    
Wind  
Wind Speed 14 mph (NW)    
Max Wind Speed 20 mph    
Max Gust Speed -    
Visibility 9 miles    
Events Snow    
Averages and records for this station are not official NWS values.
T = Trace of Precipitation, MM = Missing Value Source: NWS Daily Summary

Daily Weather History Graph

Daily Weather History Graph

Search for Another Location

Airport or City:

Trip Planner

Search our weather history database for the weather conditions in past years. The results will help you decide how hot, cold, wet, or windy it might be!

Date:

Astronomy

Mar. 05, 2013 Rise Set
Actual Time 7:18 AM CST 6:36 PM CST
Civil Twilight 6:47 AM CST 7:07 PM CST
Nautical Twilight 6:10 AM CST 7:43 PM CST
Astronomical Twilight 5:34 AM CST 8:20 PM CST
Moon 2:53 AM CST (3/5) 11:55 AM CST (3/5)
Length of Visible Light 12h 20m
Length of Day
11h 17m
Last Quarter, 40% of the Moon is Illuminated
Mar 5
Last Quarter
Mar 11
New
Mar 19
First Quarter
Mar 27
Full
Apr 2
Last Quarter

Hourly Weather History & Observations

Time (CST) Temp. Windchill Dew Point Humidity Pressure Visibility Wind Dir Wind Speed Gust Speed Precip Events Conditions
12:13 AM 15.8 °F -0.2 °F 12.2 °F 86% 30.31 in 4.0 mi North 17.3 mph - N/A Snow Light Snow
12:42 AM 14.0 °F -3.0 °F 12.2 °F 93% 30.32 in 4.0 mi North 18.4 mph - N/A Snow Light Snow
12:49 AM 14.0 °F -2.5 °F 12.2 °F 93% 30.32 in 4.0 mi North 17.3 mph - N/A Snow Light Snow
12:55 AM 14.5 °F -2.7 °F 11.7 °F 88% 30.32 in 5.0 mi North 19.6 mph - - Snow Light Snow
1:01 AM 14.0 °F -3.0 °F 12.2 °F 93% 30.32 in 5.0 mi North 18.4 mph - N/A Snow Light Snow
1:02 AM 14.0 °F -3.0 °F 12.2 °F 93% 30.32 in 5.0 mi North 18.4 mph - N/A Snow Light Snow
1:42 AM 12.2 °F -5.3 °F 8.6 °F 85% 30.34 in 7.0 mi NNW 18.4 mph - N/A   Overcast
1:55 AM 11.8 °F -6.3 °F 8.6 °F 87% 30.35 in 7.0 mi NNW 19.6 mph - -   Light Freezing Rain
1:58 AM 12.2 °F -5.3 °F 8.6 °F 85% 30.35 in 7.0 mi NNW 18.4 mph - N/A   Light Freezing Rain
1:59 AM 12.2 °F -5.3 °F 8.6 °F 85% 30.35 in 7.0 mi NNW 18.4 mph - N/A   Light Freezing Rain
2:05 AM 10.4 °F -7.7 °F 8.6 °F 92% 30.35 in 9.0 mi NNW 18.4 mph - N/A   Light Freezing Rain
2:09 AM 10.4 °F -7.7 °F 8.6 °F 92% 30.36 in 10.0 mi NNW 18.4 mph - N/A   Light Freezing Rain
2:14 AM 10.4 °F -7.2 °F 6.8 °F 85% 30.36 in 10.0 mi NNW 17.3 mph - N/A   Light Freezing Rain
2:55 AM 8.8 °F -7.5 °F 5.5 °F 87% 30.38 in 10.0 mi North 13.8 mph - -   Partly Cloudy
3:55 AM 6.4 °F -11.1 °F 2.8 °F 85% 30.41 in 10.0 mi NW 15.0 mph - - Snow Light Snow
3:57 AM 6.8 °F -10.7 °F 3.2 °F 85% 30.41 in 10.0 mi NW 15.0 mph - N/A Snow Light Snow
4:05 AM 6.8 °F -10.0 °F 3.2 °F 85% 30.42 in 10.0 mi NNW 13.8 mph - N/A   Overcast
4:12 AM 6.8 °F -10.7 °F 3.2 °F 85% 30.42 in 10.0 mi NNW 15.0 mph - N/A Snow Light Snow
4:26 AM 8.6 °F -8.3 °F 5.0 °F 85% 30.42 in 10.0 mi NW 15.0 mph - N/A Snow Light Snow
4:47 AM 8.6 °F -8.3 °F 5.0 °F 85% 30.42 in 10.0 mi NNW 15.0 mph - N/A   Overcast
4:55 AM 8.2 °F -8.8 °F 4.8 °F 86% 30.43 in 10.0 mi NNW 15.0 mph - - Snow Light Snow
5:15 AM 8.6 °F -8.3 °F 5.0 °F 85% 30.44 in 10.0 mi NNW 15.0 mph - N/A Snow Light Snow
5:55 AM 8.6 °F -8.3 °F 5.0 °F 85% 30.45 in 10.0 mi NNW 15.0 mph - - Snow Light Snow
6:11 AM 8.6 °F -8.3 °F 5.0 °F 85% 30.45 in 10.0 mi NNW 15.0 mph - N/A Snow Light Snow
6:28 AM 8.6 °F -8.3 °F 5.0 °F 85% 30.46 in 10.0 mi NNW 15.0 mph - N/A   Overcast
6:55 AM 7.3 °F -10.0 °F 3.7 °F 85% 30.47 in 10.0 mi NW 15.0 mph - -   Overcast
7:55 AM 7.5 °F -9.1 °F 3.9 °F 85% 30.48 in 10.0 mi NNW 13.8 mph - -   Overcast
8:05 AM 6.8 °F -8.6 °F 3.2 °F 85% 30.48 in 8.0 mi NW 11.5 mph - N/A   Overcast
8:33 AM 6.8 °F -8.6 °F 3.2 °F 85% 30.48 in 6.0 mi NW 11.5 mph - N/A Snow Light Snow
8:55 AM 6.3 °F -10.7 °F 2.5 °F 84% 30.50 in 7.0 mi NW 13.8 mph - -   Overcast
9:36 AM 6.8 °F -9.3 °F 3.2 °F 85% 30.51 in 8.0 mi NW 12.7 mph - N/A Snow Light Snow
9:55 AM 8.6 °F -7.0 °F 4.5 °F 83% 30.51 in 10.0 mi NW 12.7 mph - -   Overcast
10:03 AM 8.6 °F -6.3 °F 5.0 °F 85% 30.51 in 9.0 mi NW 11.5 mph - N/A Snow Light Snow
10:10 AM 8.6 °F -7.7 °F 5.0 °F 85% 30.52 in 8.0 mi NW 13.8 mph - N/A   Overcast
10:14 AM 10.4 °F -4.8 °F 5.0 °F 79% 30.51 in 7.0 mi NW 12.7 mph - N/A   Overcast
10:19 AM 10.4 °F -4.8 °F 5.0 °F 79% 30.51 in 7.0 mi NW 12.7 mph - N/A   Overcast
10:21 AM 10.4 °F -4.8 °F 5.0 °F 79% 30.51 in 7.0 mi NW 12.7 mph - N/A   Overcast
10:35 AM 10.4 °F -5.4 °F 6.8 °F 85% 30.51 in 9.0 mi NW 13.8 mph - N/A   Overcast
10:46 AM 10.4 °F -4.8 °F 6.8 °F 85% 30.51 in 10.0 mi NW 12.7 mph - N/A   Overcast
10:55 AM 11.1 °F -3.2 °F 6.4 °F 81% 30.52 in 9.0 mi NW 11.5 mph - -   Overcast
10:58 AM 10.4 °F -4.1 °F 6.8 °F 85% 30.52 in 9.0 mi NW 11.5 mph - N/A   Overcast
11:01 AM 12.2 °F -1.0 °F 6.8 °F 79% 30.51 in 9.0 mi NW 10.4 mph - N/A   Overcast
11:02 AM 12.2 °F -1.0 °F 6.8 °F 79% 30.51 in 9.0 mi NW 10.4 mph - N/A   Overcast
11:14 AM 12.2 °F -1.8 °F 6.8 °F 79% 30.51 in 10.0 mi NW 11.5 mph - N/A   Overcast
11:45 AM 14.0 °F 2.0 °F 8.6 °F 79% 30.51 in 10.0 mi NW 9.2 mph - N/A   Overcast
11:53 AM 14.0 °F 1.2 °F 8.6 °F 79% 30.50 in 10.0 mi NNW 10.4 mph - N/A   Overcast
11:54 AM 14.0 °F 1.2 °F 8.6 °F 79% 30.50 in 10.0 mi NNW 10.4 mph - N/A   Overcast
11:55 AM 13.1 °F 0.9 °F 8.1 °F 80% 30.50 in 10.0 mi NNW 9.2 mph - -   Overcast
12:23 PM 14.0 °F 1.2 °F 8.6 °F 79% 30.51 in 10.0 mi NW 10.4 mph - N/A   Overcast
12:24 PM 14.0 °F 1.2 °F 8.6 °F 79% 30.51 in 10.0 mi NW 10.4 mph - N/A   Overcast
12:25 PM 14.0 °F 1.2 °F 8.6 °F 79% 30.51 in 10.0 mi NW 10.4 mph - N/A   Overcast
12:35 PM 14.0 °F 0.5 °F 8.6 °F 79% 30.51 in 10.0 mi NW 11.5 mph - N/A   Mostly Cloudy
12:38 PM 14.0 °F 0.5 °F 8.6 °F 79% 30.51 in 10.0 mi NW 11.5 mph - N/A   Scattered Clouds
12:55 PM 14.7 °F 0.7 °F 9.3 °F 79% 30.51 in 10.0 mi NW 12.7 mph - -   Clear
1:55 PM 15.3 °F 1.4 °F 9.9 °F 79% 30.50 in 10.0 mi NW 12.7 mph - -   Clear
2:55 PM 15.8 °F 3.4 °F 10.8 °F 80% 30.50 in 10.0 mi NW 10.4 mph - -   Clear
3:55 PM 15.8 °F 5.1 °F 10.8 °F 80% 30.50 in 10.0 mi NW 8.1 mph - -   Clear
4:55 PM 14.9 °F 5.0 °F 10.2 °F 82% 30.49 in 10.0 mi NW 6.9 mph - -   Clear
5:55 PM 10.2 °F 2.0 °F 6.1 °F 83% 30.49 in 10.0 mi WNW 4.6 mph - N/A   Clear
6:55 PM 2.8 °F -6.6 °F -0.6 °F 86% 30.51 in 10.0 mi WNW 4.6 mph - N/A   Clear
7:24 PM -0.4 °F -12.0 °F -4.0 °F 85% 30.51 in 10.0 mi NNW 5.8 mph - N/A   Mostly Cloudy
7:27 PM -0.4 °F -10.4 °F -4.0 °F 85% 30.51 in 10.0 mi NNW 4.6 mph - N/A   Mostly Cloudy
7:34 PM 1.4 °F -9.9 °F -2.2 °F 85% 30.51 in 10.0 mi NW 5.8 mph - N/A   Mostly Cloudy
7:39 PM 1.4 °F -6.2 °F -2.2 °F 85% 30.51 in 10.0 mi WNW 3.5 mph - N/A   Scattered Clouds
7:55 PM -2.4 °F -14.4 °F -6.3 °F 83% 30.51 in 10.0 mi WNW 5.8 mph - N/A   Partly Cloudy
7:58 PM -2.2 °F -14.2 °F -5.8 °F 85% 30.51 in 10.0 mi West 5.8 mph - N/A   Partly Cloudy
8:55 PM -4.0 °F -12.4 °F -8.3 °F 82% 30.52 in 10.0 mi NW 3.5 mph - N/A   Clear
9:55 PM -5.8 °F -16.7 °F -10.1 °F 82% 30.52 in 10.0 mi WNW 4.6 mph - N/A   Clear
10:55 PM -6.7 °F - -11.2 °F 81% 30.51 in 10.0 mi Calm Calm - N/A   Clear
11:55 PM -6.9 °F - -11.2 °F 81% 30.51 in 10.0 mi Calm Calm - N/A   Clear